User: anonymous   Login
Location: Bishop's University Astronomical Observatory
(45.3661°N, 71.8475°W)
Time: 17:59:40
(UTC-05:00)
Language:

Meteor 2-5 Rocket - Orbit

View from above orbital plane
View from above orbital plane
View from above satellite
View from above satellite

Ground track
Ground track

The orbit data is extracted from the following two-line orbital elements,

1 11608U 79095B   14329.36330854  .00000102  00000-0  54115-4 0  7011
2 11608 081.2154 038.1106 0053764 268.4190 138.3809 14.06030596798711
Epoch (UTC): 25 November 2014 08:43:09
Eccentricity: 0.0053764
inclination: 81.2154°
perigee height: 834 km
apogee height: 912 km
right ascension of ascending node: 38.1106°
argument of perigee: 268.4190°
revolutions per day: 14.06030596
mean anomaly at epoch: 138.3809°
orbit number at epoch: 79871

The dashed part of the orbit path shows where the satellite is in the earth's shadow,  

DLR